Temp
13 14 13 14 13 13 13 13 13 13 12 12 12 12 12 12 12 12 12 11 10 10 10 10 10 9 9 9 9 9 9 8 8 8 8 8 8 8 8 8 8 8 8 9 8 8 8 9 8
13 13 13 13 13 13 13 13 12 12 12 12 12 12 12 12 12 12 13 11 10 10 10 10 10 9 9 9 9 8 8 8 8 8 8 8 8 8 8 7 8 8 8 8 8 8 9 9 8
14 13 13 13 14 13 13 12 12 12 12 12 12 12 12 12 12 12 12 11 11 10 10 10 10 9 9 9 8 8 8 8 8 8 8 8 8 8 8 8 8 8 8 8 8 8 8 8 8
14 13 13 14 13 13 13 12 12 12 12 11 11 12 12 12 12 11 12 11 11 10 10 10 10 9 9 9 8 8 8 8 8 8 8 8 8 8 8 8 8 8 8 8 8 8 8 8 8
14 14 14 13 13 13 13 12 12 12 12 11 11 11 12 12 11 11 11 11 11 10 10 10 10 9 9 9 8 8 8 8 8 8 8 8 8 8 8 7 7 7 8 8 8 8 8 8 8
14 14 14 14 14 13 13 12 12 12 12 12 11 11 11 10 10 11 11 11 10 10 10 10 10 9 9 8 8 8 8 8 8 8 8 8 8 8 7 7 7 7 7 7 7 8 8 8 8
14 14 14 14 14 14 13 13 13 12 12 12 11 11 11 11 10 10 10 10 10 10 9 10 9 9 9 9 8 8 8 8 8 8 8 8 8 8 7 7 7 7 8 7 7 7 8 8 8
14 14 14 13 13 14 13 13 12 12 11 11 11 10 12 11 11 10 10 10 10 10 9 9 9 9 9 9 9 9 8 8 8 8 8 8 8 8 7 7 7 7 7 7 7 7 8 8 8
15 14 14 14 14 14 14 13 13 12 11 12 11 10 11 11 11 10 10 10 10 10 9 9 9 9 9 9 9 8 8 8 7 7 7 7 7 7 7 7 7 7 7 7 7 8 7 7 8
15 15 15 15 15 14 13 12 12 12 12 12 11 11 10 10 10 10 10 10 10 10 9 9 9 9 9 8 8 8 8 7 6 7 6 6 7 7 7 8 7 7 7 7 7 8 8 8 8
16 15 15 15 14 14 14 13 12 12 12 11 11 11 10 10 9 10 9 9 9 9 9 9 9 9 9 8 8 7 7 7 6 7 7 7 7 7 7 7 7 8 7 7 7 7 8 8 8
16 16 16 15 14 14 13 13 12 11 11 11 10 10 11 10 10 10 10 9 9 9 9 9 9 9 8 8 8 7 7 7 7 7 7 7 7 8 8 7 7 7 7 7 7 8 8 8 8
16 16 15 15 14 14 14 13 13 11 11 11 10 10 10 10 10 10 9 9 9 9 10 10 9 9 9 9 8 8 8 7 7 7 7 7 8 8 8 7 7 8 7 7 7 7 8 8 8
16 15 15 15 15 14 14 14 13 12 11 10 10 11 10 10 10 11 10 10 9 9 9 9 9 9 9 9 8 8 8 7 7 7 8 8 9 9 8 8 7 8 8 8 8 8 7 8 8
16 15 14 15 14 15 14 14 13 13 12 10 10 11 11 10 11 10 10 9 9 9 9 9 9 9 9 9 9 8 8 7 7 8 8 8 9 9 8 8 7 8 8 8 8 7 7 7 8
16 16 15 14 14 15 14 14 14 14 13 12 10 11 11 11 10 10 10 9 9 9 8 9 9 9 9 9 9 9 8 8 8 8 8 8 8 8 8 8 8 8 7 7 8 8 8 8 8
16 16 15 15 14 15 15 15 15 14 13 13 12 11 11 11 10 10 10 9 9 8 8 8 9 8 9 9 9 9 9 9 8 8 8 8 8 8 8 8 8 8 8 8 8 8 8 8 8
16 16 15 16 16 15 15 15 15 15 15 13 13 12 11 11 11 10 10 9 9 9 9 9 9 9 9 9 9 9 10 10 9 9 8 8 8 8 8 8 8 8 7 8 8 8 9 9 8
15 15 16 16 16 16 16 15 15 15 15 15 14 13 12 11 11 10 10 9 9 9 9 9 9 9 9 9 9 10 10 10 9 9 9 9 8 8 8 8 8 8 8 7 8 8 9 9 8
16 16 16 16 16 16 16 15 15 15 16 15 14 14 13 12 11 11 10 10 9 9 9 9 9 9 9 9 9 10 9 9 10 10 10 9 9 9 8 8 8 8 8 8 9 9 9 8 7
16 17 17 17 16 16 16 15 15 15 15 15 15 14 14 13 12 12 11 10 10 10 10 10 9 10 9 9 9 10 10 10 10 10 9 9 9 8 8 8 8 8 8 8 8 9 8 8 8
17 17 17 17 16 16 15 16 17 17 16 15 15 15 14 14 13 12 12 11 11 11 10 10 10 9 10 10 9 10 10 10 9 10 9 9 9 8 8 7 7 8 8 8 8 8 9 8 9
17 17 17 17 17 16 15 15 18 17 17 18 16 15 15 14 14 13 13 12 11 11 11 10 10 10 10 10 10 9 10 9 10 10 9 9 9 9 8 8 8 8 8 8 8 8 8 8 8
17 17 17 17 15 15 16 15 18 17 18 18 17 15 15 14 15 14 13 12 12 12 11 11 10 11 11 11 10 10 10 10 10 9 9 9 9 9 9 8 8 9 9 8 8 8 8 8 8
17 17 16 15 13 13 16 15 18 18 18 18 17 17 16 15 14 14 13 12 12 12 12 11 11 11 11 11 10 10 10 10 10 10 10 9 9 9 9 9 9 9 9 9 9 9 8 8 8
16 17 17 14 11 15 15 15 18 18 18 18 18 17 16 15 14 14 12 12 12 12 12 12 11 11 10 10 9 9 9 10 10 10 10 10 9 9 10 10 9 9 9 9 10 10 9 9 8
17 17 17 17 15 14 15 16 17 18 18 18 17 17 16 14 14 14 13 12 13 13 13 13 12 12 11 10 11 10 10 9 9 10 10 10 9 9 9 10 10 10 10 10 10 10 10 10 9
17 18 17 17 13 14 14 15 17 17 17 17 17 17 16 14 13 13 13 13 12 13 12 13 14 12 12 11 11 11 10 10 9 9 10 9 9 9 9 10 10 10 10 10 10 10 10 10 10
16 17 17 17 16 11 10 15 17 17 17 17 17 16 15 13 12 13 13 12 11 11 11 12 13 13 11 11 10 10 11 10 9 8 9 9 9 9 9 10 10 10 9 9 9 9 9 10 10
16 17 17 17 15 15 14 16 17 17 17 16 16 15 14 13 12 11 11 11 11 11 11 10 11 9 11 11 11 11 10 9 7 7 8 9 9 9 9 9 9 9 9 9 9 9 9 9 9
Height
3158 3157 3158 3158 3162 3159 3160 3163 3162 3163 3165 3165 3167 3168 3169 3169 3171 3174 3171 3175 3177 3181 3182 3185 3188 3191 3193 3195 3197 3199 3201 3202 3203 3204 3204 3205 3206 3207 3208 3209 3209 3210 3211 3212 3210 3211 3212 3213 3214
3158 3158 3158 3159 3161 3160 3162 3163 3165 3166 3166 3166 3168 3168 3169 3170 3170 3171 3172 3176 3179 3183 3184 3187 3190 3192 3194 3197 3199 3201 3202 3203 3204 3206 3207 3207 3208 3209 3210 3211 3212 3214 3213 3213 3213 3212 3213 3215 3216
3158 3158 3160 3161 3161 3161 3164 3165 3165 3168 3167 3168 3168 3168 3168 3169 3170 3171 3173 3177 3180 3184 3186 3189 3191 3194 3196 3198 3200 3202 3203 3205 3206 3207 3208 3209 3210 3210 3211 3212 3213 3214 3214 3214 3214 3214 3215 3216 3217
3160 3160 3161 3161 3161 3163 3165 3166 3166 3168 3169 3169 3169 3169 3167 3168 3168 3172 3175 3178 3181 3185 3188 3190 3193 3195 3197 3199 3201 3203 3205 3206 3208 3209 3209 3211 3212 3212 3212 3213 3214 3214 3215 3215 3215 3216 3216 3217 3218
3163 3162 3161 3161 3164 3165 3166 3166 3168 3169 3169 3169 3169 3168 3168 3168 3170 3174 3177 3180 3183 3186 3189 3192 3194 3196 3198 3200 3202 3204 3205 3207 3209 3210 3211 3212 3213 3213 3213 3213 3213 3214 3215 3215 3215 3216 3217 3218 3219
3165 3164 3165 3164 3167 3167 3167 3167 3168 3170 3170 3170 3169 3169 3170 3170 3174 3177 3180 3183 3185 3189 3191 3193 3195 3197 3199 3201 3203 3205 3206 3207 3209 3210 3210 3211 3212 3212 3213 3213 3213 3213 3214 3214 3215 3215 3216 3217 3218
3168 3167 3168 3168 3169 3168 3169 3168 3169 3171 3171 3171 3171 3171 3171 3171 3174 3178 3181 3184 3187 3190 3192 3195 3196 3198 3200 3202 3203 3205 3206 3207 3208 3209 3210 3210 3210 3211 3212 3212 3212 3212 3213 3213 3213 3214 3214 3216 3217
3170 3170 3170 3170 3171 3170 3169 3169 3169 3170 3172 3171 3171 3172 3172 3172 3174 3178 3181 3184 3187 3189 3191 3195 3197 3199 3200 3202 3203 3204 3206 3207 3207 3209 3209 3209 3209 3210 3210 3211 3211 3211 3212 3211 3212 3212 3213 3214 3216
3170 3171 3171 3171 3171 3171 3169 3169 3169 3170 3172 3172 3171 3172 3173 3174 3176 3179 3181 3183 3186 3189 3191 3193 3196 3198 3200 3202 3202 3203 3204 3205 3205 3207 3206 3208 3208 3208 3208 3209 3209 3210 3211 3210 3210 3210 3211 3212 3214
3171 3172 3172 3170 3171 3171 3169 3169 3170 3171 3171 3172 3172 3173 3175 3176 3178 3180 3183 3185 3187 3190 3192 3194 3196 3197 3199 3200 3201 3202 3202 3202 3199 3200 3202 3205 3206 3207 3207 3207 3208 3209 3209 3209 3209 3209 3209 3210 3211
3172 3171 3172 3172 3172 3172 3171 3170 3171 3171 3172 3174 3174 3174 3175 3178 3178 3180 3183 3185 3188 3190 3192 3194 3195 3196 3197 3199 3200 3199 3199 3199 3197 3197 3198 3201 3204 3205 3206 3206 3206 3207 3207 3208 3208 3208 3208 3209 3209
3173 3172 3173 3173 3173 3173 3172 3171 3171 3172 3173 3174 3174 3175 3177 3178 3179 3182 3184 3186 3188 3190 3190 3191 3193 3195 3196 3197 3197 3198 3195 3195 3196 3195 3196 3198 3200 3202 3203 3204 3203 3203 3204 3205 3206 3207 3207 3207 3208
3173 3174 3174 3174 3174 3174 3173 3173 3172 3171 3172 3172 3174 3175 3177 3179 3181 3183 3185 3186 3188 3189 3190 3191 3193 3194 3196 3196 3196 3195 3195 3194 3193 3193 3194 3194 3196 3199 3201 3202 3201 3201 3202 3203 3204 3205 3206 3206 3208
3174 3175 3175 3175 3176 3176 3176 3174 3173 3171 3170 3171 3173 3174 3176 3180 3182 3184 3185 3187 3188 3190 3191 3192 3193 3194 3195 3195 3196 3195 3195 3194 3193 3191 3191 3192 3194 3196 3198 3200 3200 3200 3201 3201 3202 3203 3203 3204 3206
3174 3175 3176 3176 3176 3176 3176 3176 3175 3173 3171 3171 3173 3177 3179 3181 3182 3183 3185 3187 3188 3189 3190 3192 3192 3193 3194 3195 3195 3195 3194 3194 3192 3191 3191 3192 3193 3195 3197 3198 3198 3198 3199 3198 3199 3200 3201 3203 3205
3174 3176 3176 3176 3177 3177 3178 3177 3176 3175 3174 3174 3174 3177 3180 3181 3182 3183 3185 3186 3188 3190 3192 3192 3192 3193 3194 3196 3196 3195 3195 3194 3193 3193 3192 3192 3193 3194 3195 3196 3198 3197 3196 3197 3197 3198 3199 3200 3202
3174 3174 3175 3175 3177 3178 3178 3178 3178 3177 3177 3177 3177 3178 3180 3181 3181 3182 3184 3187 3189 3191 3191 3192 3192 3192 3192 3194 3195 3196 3196 3195 3193 3193 3194 3193 3193 3194 3194 3195 3195 3195 3194 3194 3196 3197 3198 3198 3200
3175 3175 3175 3175 3177 3177 3178 3177 3179 3179 3178 3178 3179 3179 3180 3180 3181 3183 3185 3187 3190 3191 3191 3191 3191 3191 3191 3192 3194 3195 3195 3195 3195 3193 3192 3193 3193 3193 3192 3193 3194 3194 3193 3193 3194 3195 3197 3197 3199
3174 3175 3176 3176 3177 3176 3176 3178 3179 3181 3179 3177 3178 3179 3179 3178 3180 3182 3184 3186 3188 3190 3191 3190 3191 3192 3191 3193 3193 3194 3193 3194 3193 3194 3193 3192 3192 3192 3191 3192 3192 3192 3192 3192 3193 3195 3196 3194 3194
3173 3174 3174 3177 3177 3176 3175 3176 3178 3178 3178 3178 3177 3177 3178 3179 3180 3182 3184 3186 3188 3190 3190 3190 3191 3192 3192 3191 3191 3192 3193 3194 3194 3194 3194 3194 3192 3192 3192 3192 3192 3193 3193 3192 3191 3193 3193 3193 3191
3173 3174 3174 3175 3175 3174 3174 3174 3174 3174 3175 3176 3175 3176 3176 3179 3181 3182 3183 3185 3187 3189 3189 3190 3190 3190 3193 3190 3190 3192 3192 3192 3192 3194 3195 3193 3192 3192 3191 3190 3187 3187 3190 3190 3190 3192 3193 3192 3191
3171 3173 3174 3172 3171 3171 3173 3173 3170 3170 3170 3171 3173 3174 3175 3177 3179 3181 3181 3183 3186 3187 3188 3188 3189 3189 3190 3190 3190 3192 3193 3193 3193 3193 3194 3193 3192 3190 3188 3183 3183 3186 3185 3185 3187 3189 3191 3191 3190
3171 3172 3171 3170 3170 3171 3171 3174 3168 3168 3166 3165 3168 3172 3172 3174 3177 3179 3181 3183 3184 3186 3186 3186 3187 3188 3187 3189 3189 3190 3193 3192 3194 3194 3194 3192 3192 3191 3188 3184 3184 3185 3185 3185 3184 3187 3188 3188 3188
3169 3169 3169 3169 3170 3171 3170 3172 3166 3166 3164 3164 3163 3167 3170 3172 3175 3177 3179 3181 3182 3184 3186 3186 3188 3186 3186 3187 3188 3189 3190 3192 3192 3194 3194 3193 3192 3190 3189 3188 3187 3185 3185 3185 3183 3183 3185 3185 3184
3166 3167 3168 3169 3170 3170 3169 3171 3166 3163 3162 3159 3160 3162 3166 3170 3172 3175 3178 3180 3182 3182 3184 3185 3187 3188 3187 3187 3188 3189 3189 3189 3191 3192 3193 3193 3192 3190 3187 3187 3187 3188 3187 3186 3185 3184 3183 3184 3182
3167 3166 3167 3170 3172 3167 3168 3167 3163 3162 3161 3159 3159 3161 3162 3167 3171 3172 3177 3177 3177 3181 3182 3180 3182 3183 3185 3186 3186 3189 3188 3187 3189 3190 3191 3192 3191 3191 3188 3187 3185 3184 3184 3185 3185 3183 3183 3182 3181
3162 3164 3165 3164 3165 3166 3164 3163 3163 3162 3161 3160 3160 3161 3161 3164 3167 3168 3170 3170 3171 3172 3175 3177 3178 3177 3176 3178 3180 3181 3181 3180 3186 3188 3189 3189 3189 3188 3187 3186 3185 3184 3183 3182 3182 3182 3180 3179 3178
3157 3161 3162 3161 3164 3166 3162 3162 3161 3161 3160 3160 3160 3160 3160 3160 3163 3164 3166 3167 3166 3164 3168 3170 3171 3172 3175 3175 3176 3178 3177 3180 3174 3184 3185 3185 3184 3180 3183 3183 3182 3181 3182 3182 3181 3179 3177 3175 3173
3156 3156 3157 3158 3160 3161 3164 3160 3159 3159 3159 3160 3159 3160 3160 3159 3161 3162 3164 3163 3162 3162 3163 3166 3165 3163 3167 3168 3170 3174 3176 3174 3167 3172 3179 3181 3181 3182 3181 3181 3180 3179 3179 3178 3177 3176 3174 3172 3169
3153 3153 3153 3155 3158 3158 3157 3157 3157 3158 3157 3156 3158 3159 3158 3157 3157 3158 3159 3158 3157 3158 3158 3158 3159 3158 3159 3162 3163 3166 3168 3167 3155 3165 3165 3176 3177 3175 3177 3177 3177 3174 3174 3173 3172 3170 3168 3165 3164
Wind_Speed
2 2 4 5 1 4 10 4 5 9 6 4 10 5 4 3 3 1 15 19 20 19 22 24 23 22 21 19 18 17 16 15 13 13 13 12 11 10 11 12 12 12 12 11 13 14 12 11 12
2 1 3 4 3 11 6 5 3 11 2 2 9 3 2 4 5 1 15 20 19 19 20 22 22 20 20 18 16 15 14 13 11 10 10 9 9 8 8 8 9 9 10 10 9 11 11 9 10
4 1 4 1 5 9 8 6 7 3 2 4 3 5 6 5 8 2 15 20 20 19 19 20 20 19 18 16 14 13 12 10 8 7 6 6 6 6 6 5 6 6 5 7 7 7 8 8 8
7 4 1 3 8 9 5 7 6 3 4 3 4 4 6 5 6 14 18 19 19 18 18 18 18 18 16 14 13 11 9 7 5 4 4 3 4 4 4 3 3 3 3 3 4 5 4 5 5
7 7 6 12 11 10 7 6 4 1 3 3 1 3 4 14 18 17 17 18 16 17 17 16 16 16 15 13 12 9 7 5 4 4 3 2 2 2 2 2 2 3 3 6 6 6 6 6 5
6 8 10 17 10 4 5 5 2 0 1 2 3 4 8 17 14 14 15 16 16 13 14 15 15 15 14 13 12 10 8 7 6 5 4 3 3 3 3 4 4 5 4 6 8 10 10 10 9
6 7 8 9 8 5 3 5 5 3 4 3 0 2 10 15 18 16 16 16 15 14 12 12 13 14 13 12 12 10 9 8 8 7 6 6 6 5 5 5 6 5 5 6 8 10 13 13 14
3 4 6 4 5 2 4 3 3 3 7 5 1 5 2 12 17 17 17 16 14 13 13 12 13 12 13 13 12 11 11 11 11 10 10 10 8 6 5 6 7 7 6 7 8 10 12 14 15
6 2 5 4 2 3 2 2 0 4 4 8 7 3 4 8 14 18 17 16 14 13 12 14 13 12 11 11 13 12 13 14 14 12 13 11 10 8 6 8 8 9 8 8 8 9 12 14 15
3 4 4 3 4 5 4 3 4 1 2 7 9 7 7 10 13 13 12 9 9 8 10 9 10 11 11 11 11 12 14 14 16 17 17 13 12 10 9 10 11 10 9 9 7 8 10 13 15
3 4 2 2 1 4 9 3 2 3 3 4 7 2 8 13 17 15 13 8 8 9 7 8 11 11 12 12 12 14 15 17 19 15 13 16 15 13 12 13 13 13 12 11 8 8 8 11 14
4 4 2 4 4 8 9 7 5 1 2 2 6 5 14 12 13 12 12 7 6 4 5 10 11 12 11 12 12 12 16 12 12 14 11 14 17 14 14 14 18 23 14 11 9 8 8 10 13
5 6 7 1 3 8 11 11 13 5 2 5 7 4 11 15 11 11 10 7 7 4 2 4 7 9 9 9 9 9 9 10 11 6 10 11 12 14 12 6 2 6 10 9 9 9 9 10 12
7 9 9 5 1 6 8 13 13 12 4 9 8 8 17 15 12 11 7 7 3 2 1 1 3 4 4 5 6 7 7 7 8 5 7 9 12 14 11 7 4 7 8 6 9 8 9 11 12
5 10 11 8 5 3 3 8 9 13 11 10 12 12 15 13 13 11 7 6 5 5 1 4 3 3 3 3 4 6 5 7 5 3 2 8 9 10 9 8 8 8 9 8 7 8 9 12 12
11 9 15 15 13 9 5 2 4 9 13 11 11 19 12 12 13 11 8 5 3 6 4 4 3 3 4 5 6 7 7 6 5 2 4 7 8 8 8 8 7 9 10 10 9 7 10 11 11
13 14 19 16 18 13 11 3 3 5 9 10 12 14 13 13 12 10 8 4 4 7 7 3 5 5 6 8 8 8 6 6 4 3 6 8 9 9 9 10 9 10 11 11 11 10 10 9 10
8 13 20 18 13 15 15 12 6 3 4 6 7 11 13 13 11 8 6 4 5 9 5 4 6 8 7 6 7 6 5 4 5 3 5 8 10 11 10 12 12 10 10 9 12 12 9 7 7
6 12 20 19 16 18 18 17 12 8 4 2 4 8 9 9 10 10 7 8 6 6 7 4 5 6 6 6 7 7 6 5 4 5 5 7 9 10 12 13 12 11 9 8 12 13 11 10 20
5 3 4 15 18 17 18 21 18 17 11 3 2 4 7 9 11 9 9 9 5 4 6 6 4 4 5 7 8 6 5 5 5 3 3 1 3 5 7 9 11 9 8 5 6 11 12 11 10
2 6 4 9 11 15 19 23 24 21 20 15 11 7 7 7 7 6 6 6 8 4 3 3 4 6 6 7 6 6 4 6 5 5 1 4 3 2 5 9 11 8 8 8 7 9 9 8 14
5 3 10 16 4 17 18 8 18 22 25 24 18 14 8 9 8 7 6 5 5 5 3 2 3 3 6 6 5 8 9 6 6 4 5 4 3 4 8 10 12 7 8 10 11 11 10 9 14
7 12 15 12 11 12 17 9 21 20 24 22 23 17 13 10 11 9 6 6 7 8 5 4 4 2 4 7 8 9 9 8 7 6 5 5 4 6 8 9 7 7 6 8 7 9 11 10 13
8 13 11 4 12 5 14 18 21 21 24 22 23 20 18 13 10 13 9 11 9 9 8 5 3 3 4 8 10 10 10 10 8 6 6 4 4 5 6 1 3 3 2 6 2 4 8 12 11
11 8 3 1 0 6 4 12 14 17 15 18 19 21 21 19 14 13 8 8 12 8 8 9 9 7 8 8 11 11 10 11 10 7 7 5 5 4 1 4 6 1 3 4 4 5 5 7 11
11 9 4 5 3 4 5 7 7 8 5 7 9 9 17 24 21 16 13 13 12 13 15 15 14 13 12 12 12 14 15 14 11 10 9 8 7 7 6 4 5 4 3 3 5 8 11 12 12
12 16 10 4 2 1 3 5 5 0 7 7 7 8 12 23 21 22 22 20 19 20 19 25 23 22 23 21 21 21 22 18 13 15 13 10 11 11 10 9 7 5 4 6 8 10 13 16 18
13 15 8 6 3 3 3 3 6 2 2 4 6 9 11 19 26 25 27 23 21 31 24 29 33 32 28 25 26 25 28 24 19 20 19 16 16 13 14 14 12 11 11 12 14 15 17 18 21
8 11 7 5 3 6 2 4 5 5 6 2 5 9 8 14 28 27 30 31 26 31 29 30 36 43 35 33 33 29 37 33 30 18 26 24 20 18 16 15 15 15 17 19 20 21 22 22 24
4 5 7 7 6 6 3 4 8 8 6 3 3 3 4 9 22 27 28 35 40 41 43 43 42 32 35 36 29 39 43 54 56 33 27 24 21 18 16 16 17 19 22 25 27 28 29 29 29
Wind_Direction
132 58 162 149 47 116 126 109 123 153 131 118 147 104 134 35 166 76 152 160 152 158 149 149 152 148 144 141 140 137 135 131 122 116 112 109 99 96 100 104 112 113 113 117 118 116 118 119 121
340 34 205 226 125 136 119 143 130 160 89 150 198 228 293 288 223 46 168 159 154 161 153 151 154 153 149 148 144 141 139 132 128 122 114 111 111 117 118 121 117 118 125 118 113 115 117 123 124
181 105 191 280 181 117 126 146 172 166 172 189 208 252 254 244 221 219 168 160 156 161 156 156 158 158 156 155 148 147 146 143 136 126 122 121 126 131 133 137 135 128 127 125 126 123 124 128 133
48 35 156 244 131 123 108 141 141 81 96 176 287 272 269 220 190 166 164 159 156 161 163 162 163 164 166 163 162 161 158 155 149 152 152 140 136 137 156 173 172 167 180 187 177 166 161 153 147
30 35 98 109 119 107 80 144 139 56 337 158 183 185 130 120 123 154 162 157 158 163 168 168 168 171 174 173 176 179 182 194 198 204 207 190 194 179 203 213 223 232 231 240 235 222 214 209 208
52 70 101 99 118 138 87 156 156 56 60 286 265 250 152 123 140 158 161 160 158 169 172 177 178 179 183 186 194 197 209 221 220 223 229 244 258 251 255 269 266 262 253 248 249 247 238 230 225
129 95 102 108 101 121 102 144 124 95 87 22 57 228 169 147 145 160 165 165 165 168 178 189 191 191 191 199 211 219 226 225 225 231 243 248 251 259 273 282 285 277 279 263 247 248 247 242 238
183 122 111 121 135 126 60 123 119 77 77 78 144 16 194 148 155 166 170 168 173 175 180 193 200 202 205 211 217 222 225 229 223 242 254 250 250 256 271 280 287 284 283 270 253 245 247 245 240
185 159 91 164 83 65 75 78 224 136 118 88 47 78 146 139 153 171 176 174 180 182 186 195 198 204 212 218 231 230 232 243 247 245 246 248 253 253 269 270 276 279 283 270 263 252 247 248 244
230 204 107 91 51 52 42 176 334 335 264 59 44 158 147 123 126 135 163 170 173 197 209 207 205 206 215 226 241 241 249 251 253 245 240 246 247 251 249 263 271 275 278 266 262 257 248 248 247
237 181 141 66 45 41 43 65 347 348 12 74 49 92 174 150 135 145 146 148 163 185 203 215 217 221 224 231 242 247 254 252 263 287 239 242 244 244 250 255 262 261 284 261 252 256 243 242 240
174 144 106 36 79 47 56 49 29 165 28 87 91 62 173 148 141 147 137 122 151 193 222 209 212 224 234 244 251 259 264 278 280 279 253 245 241 237 251 265 274 258 251 241 248 246 239 236 235
219 189 199 184 104 64 64 63 47 93 225 173 132 110 172 147 140 136 141 150 126 64 96 189 220 240 242 248 250 263 288 307 320 302 253 240 223 223 238 263 307 191 219 245 238 233 243 239 236
231 204 201 209 140 62 62 70 50 63 129 173 146 118 153 167 155 138 142 167 151 146 155 198 251 234 236 245 249 264 289 322 331 311 229 211 213 219 219 221 239 230 244 261 242 240 236 238 238
187 201 204 213 218 304 96 74 74 60 82 135 159 147 140 147 143 129 117 114 162 173 237 273 287 263 226 235 257 263 291 314 321 352 193 188 193 194 201 220 241 251 257 262 265 242 253 249 239
193 230 219 213 221 256 241 347 61 65 66 104 149 162 168 134 131 131 130 148 181 223 237 260 260 256 254 242 247 269 296 309 307 253 177 190 194 204 218 227 252 271 264 271 269 254 269 255 237
194 211 219 225 226 245 255 280 298 53 78 86 125 147 149 154 160 161 168 167 191 204 221 255 244 263 251 242 250 274 302 305 304 256 217 197 200 213 223 233 241 244 264 276 262 251 260 246 246
207 220 229 235 268 250 252 265 276 322 66 104 122 132 148 157 154 145 139 172 229 237 234 253 244 247 240 248 256 263 268 271 289 270 216 215 221 227 229 235 244 252 258 265 248 249 246 249 266
1 230 239 256 277 274 275 254 261 285 290 168 109 183 174 168 166 179 182 192 197 229 235 242 252 258 241 252 247 252 256 245 240 235 214 207 214 226 235 237 237 237 244 251 239 239 243 239 254
11 144 265 249 272 286 282 259 260 254 278 265 201 96 163 183 184 182 201 212 198 208 211 229 244 252 245 228 243 254 253 253 206 219 229 227 211 221 237 245 245 246 249 253 229 219 236 263 239
284 267 290 315 293 248 255 262 257 251 249 242 231 218 215 175 150 155 158 184 199 213 185 188 220 246 244 241 237 231 195 154 184 220 150 142 142 268 268 251 243 233 245 245 239 237 243 257 201
260 283 319 324 234 212 223 268 267 267 265 253 237 227 212 211 202 185 184 185 175 190 185 243 240 235 249 249 219 206 192 206 234 185 146 193 154 356 348 295 222 217 238 242 227 228 242 244 231
256 305 315 326 241 227 215 227 264 268 274 277 256 233 215 224 236 219 206 202 186 203 213 218 251 296 244 238 226 213 206 228 231 168 161 191 259 322 358 34 171 210 248 283 269 234 238 245 259
283 296 303 277 214 227 232 211 280 269 274 283 270 251 234 222 232 224 213 222 214 220 245 242 249 260 247 232 227 219 213 218 202 187 180 211 247 330 4 155 167 161 245 306 348 270 253 252 248
297 278 309 356 17 225 204 205 280 297 300 290 283 268 247 238 229 227 212 258 248 227 238 248 263 271 266 262 243 226 219 222 223 207 202 232 246 256 322 115 185 234 9 343 319 299 283 267 251
288 261 222 203 198 265 181 228 286 326 355 298 266 296 258 241 240 241 219 253 252 249 259 243 240 246 256 258 250 248 245 235 233 236 231 232 246 255 254 228 215 239 263 297 321 326 314 301 289
251 256 250 231 238 270 236 269 293 262 323 315 289 335 290 239 250 244 235 242 234 229 240 261 261 248 238 236 237 233 234 233 247 254 246 238 237 248 255 254 256 258 275 298 302 300 298 301 296
223 243 229 220 144 241 273 242 236 257 304 35 0 336 319 254 245 247 244 250 250 230 254 246 253 265 254 250 244 245 235 236 229 255 258 248 243 247 244 248 251 244 266 282 288 291 295 296 294
173 189 206 233 210 165 196 239 223 162 133 103 336 345 330 264 239 248 251 258 257 251 252 254 250 263 261 249 254 244 252 237 228 224 231 246 252 256 250 254 256 256 276 287 290 293 296 300 301
169 227 256 233 219 211 208 244 178 169 160 204 279 350 316 262 246 243 260 258 262 267 265 265 269 270 269 256 277 249 249 262 258 218 241 245 249 248 257 259 259 271 281 285 289 293 297 298 298